Weather History for KHVR - January, 2013

Change the Weather History Date:

Thursday, January 24, 2013

  Actual Average Record
Temperature  
Mean Temperature 24 °F 19 °F  
Max Temperature 37 °F 29 °F 64 °F (2005)
Min Temperature 10 °F 8 °F -52 °F (1969)
Degree Days  
Heating Degree Days 41 46  
Month to date heating degree days 1070 1136  
Since 1 July heating degree days 4440 4602  
Cooling Degree Days 0 0  
Month to date cooling degree days 0 0  
Year to date cooling degree days 0 0  
Moisture  
Dew Point 15 °F    
Average Humidity 74    
Maximum Humidity 88    
Minimum Humidity 59    
Precipitation  
Precipitation 0.00 in 0.01 in 0.44 in (1931)
Month to date precipitation 0.88 0.27  
Year to date precipitation 0.88 0.27  
Snow  
Snow 0.00 in 0.20 in 4.20 in (1952)
Month to date snowfall 15.3 5.8  
Since 1 July snowfall 40.3 20.8  
Snow Depth 3.00 in    
Sea Level Pressure  
Sea Level Pressure 30.05 in    
Wind  
Wind Speed 6 mph (WSW)    
Max Wind Speed 18 mph    
Max Gust Speed 21 mph    
Visibility 10 miles    
Events      
T = Trace of Precipitation, MM = Missing Value Source: NWS Daily Summary

Daily Weather History Graph

Daily Weather History Graph

Search for Another Location

Airport or City:

Trip Planner

Search our weather history database for the weather conditions in past years. The results will help you decide how hot, cold, wet, or windy it might be!

Date:

Astronomy

Jan. 24, 2013 Rise Set
Actual Time 7:57 AM MST 5:05 PM MST
Civil Twilight 7:23 AM MST 5:40 PM MST
Nautical Twilight 6:44 AM MST 6:18 PM MST
Astronomical Twilight 6:07 AM MST 6:55 PM MST
Moon 3:07 PM MST (1/24) 6:00 AM MST (1/24)
Length of Visible Light 10h 16m
Length of Day
9h 07m
Waxing Gibbous, 95% of the Moon is Illuminated
Jan 24
Waxing Gibbous
Jan 26
Full
Feb 3
Last Quarter
Feb 10
New
Feb 17
First Quarter

Hourly Weather History & Observations

Time (MST) Temp. Windchill Dew Point Humidity Pressure Visibility Wind Dir Wind Speed Gust Speed Precip Events Conditions
12:53 AM 12.9 °F 6.9 °F 8.1 °F 81% 30.00 in 10.0 mi West 3.5 mph - N/A   Clear
1:53 AM 12.9 °F - 8.1 °F 81% 29.97 in 10.0 mi Calm Calm - N/A   Partly Cloudy
2:53 AM 12.9 °F - 8.1 °F 81% 29.97 in 10.0 mi Calm Calm - N/A   Clear
3:53 AM 12.9 °F - 9.0 °F 84% 29.95 in 10.0 mi Calm Calm - N/A   Clear
4:53 AM 12.9 °F 5.2 °F 9.0 °F 84% 29.94 in 10.0 mi West 4.6 mph - N/A   Clear
5:53 AM 12.9 °F 6.9 °F 9.0 °F 84% 29.94 in 10.0 mi WSW 3.5 mph - N/A   Clear
6:53 AM 10.9 °F 2.9 °F 7.0 °F 84% 29.95 in 10.0 mi South 4.6 mph - N/A   Clear
7:53 AM 12.9 °F 0.7 °F 8.1 °F 81% 29.96 in 10.0 mi WNW 9.2 mph - N/A   Clear
8:53 AM 16.0 °F 4.4 °F 10.0 °F 77% 29.97 in 10.0 mi West 9.2 mph - N/A   Clear
9:53 AM 21.0 °F 8.6 °F 14.0 °F 74% 30.02 in 10.0 mi WSW 12.7 mph - N/A   Clear
10:53 AM 26.1 °F 15.6 °F 18.0 °F 71% 30.06 in 10.0 mi West 11.5 mph - N/A   Partly Cloudy
11:53 AM 26.1 °F 18.4 °F 19.0 °F 75% 30.07 in 10.0 mi SW 6.9 mph - N/A   Overcast
12:53 PM 34.0 °F 26.0 °F 24.1 °F 67% 30.06 in 10.0 mi West 10.4 mph - N/A   Overcast
1:53 PM 37.0 °F 29.3 °F 25.0 °F 62% 30.06 in 10.0 mi WNW 11.5 mph - N/A   Clear
2:53 PM 35.1 °F 28.6 °F 25.0 °F 67% 30.09 in 10.0 mi WNW 8.1 mph - N/A   Clear
3:53 PM 34.0 °F 31.0 °F 25.0 °F 70% 30.11 in 10.0 mi SW 3.5 mph - N/A   Clear
4:53 PM 34.0 °F 29.8 °F 25.0 °F 70% 30.12 in 10.0 mi West 4.6 mph - N/A   Clear
5:53 PM 28.0 °F 20.0 °F 21.0 °F 75% 30.14 in 10.0 mi SW 8.1 mph - N/A   Clear
6:53 PM 23.0 °F - 19.0 °F 85% 30.16 in 10.0 mi Calm Calm - N/A   Clear
7:53 PM 21.0 °F 16.2 °F 17.1 °F 85% 30.16 in 10.0 mi WSW 3.5 mph - N/A   Clear
8:53 PM 16.0 °F 7.4 °F 12.9 °F 88% 30.16 in 10.0 mi WNW 5.8 mph - N/A   Clear
9:53 PM 19.9 °F 7.9 °F 16.0 °F 85% 30.13 in 10.0 mi SW 11.5 mph - N/A   Clear
10:53 PM 18.0 °F 9.8 °F 14.0 °F 84% 30.13 in 10.0 mi West 5.8 mph - N/A   Clear
11:53 PM 18.0 °F - 14.0 °F 84% 30.13 in 10.0 mi Calm Calm - N/A   Clear